Flag for Japan Weather past 2 weeks in Kawasaki, Japan

Now
72 °F

Sprinkles. Fog.


Feels Like: 67 °F
Forecast: 69 / 78 °F
Wind: 14 mph from Northeast

Location: Tokyo International Airport

Current Time: Sep 1, 2014 at 6:20:28 PM

Latest Report: Sep 1, 2014 at 5:30 PM


Visibility: N/A

Pressure: 29.92 "Hg

Humidity: 94%

Dew point: 70 °F

Location of KawasakiLocation

Historic Weather in Kawasaki — Graph

°F

Kawasaki temperature yesterday

Maximum temperature yesterday: 77 °F (at 1:00 PM)
Minimum temperature yesterday: 70 °F (at 4:30 AM)
Average temperature yesterday: 74 °F

Past Weeks' High & Low Weather Summary

 TemperatureHumidityPressure
High91 °F (Aug 19, 2:00 PM)100% (Aug 28, 5:30 AM)30.01 "Hg (Aug 28, 5:30 AM)
Low68 °F (Aug 27, 7:30 AM)59% (Aug 19, 9:00 AM)29.71 "Hg (Aug 26, 1:30 PM)
Average78 °F80%29.89 "Hg
* Reported Aug 17 5:00 PM — Sep 1 5:00 PM, Kawasaki, Weather by CustomWeather, © 2014

Note: Actual official high and low records may vary slightly from our data, if they occured in-between our weather recording intervals... More about our weather records

Advertising

Kawasaki weather history for previous 24 hours

 ConditionsComfort  
Time TempWeatherWind HumidityBarometerVisibility
5:00 PM
Sep 1
72 °FSprinkles. Fog.14 mph88%29.92 "Hg5 mi
4:30 PM72 °FSprinkles. Partly sunny.13 mph94%29.92 "Hg5 mi
4:00 PM72 °FSprinkles. Broken clouds.13 mph94%29.92 "HgN/A
3:30 PM70 °FSprinkles. Broken clouds.15 mph94%29.92 "Hg4 mi
3:00 PM70 °FRain showers. Fog.12 mph94%29.92 "Hg3 mi
2:30 PM70 °FRain showers. Fog.13 mph94%29.92 "Hg2 mi
2:00 PM70 °FRain showers. Fog.16 mph88%29.95 "Hg3 mi
1:51 PM70 °FRain showers. Fog.16 mph88%29.92 "Hg2 mi
1:30 PM72 °FLots of rain. Fog.8 mph88%29.95 "Hg1 mi
1:00 PM73 °FRain showers. Fog.6 mph83%29.92 "Hg2 mi
12:30 PM73 °FSprinkles. Broken clouds.8 mph78%29.95 "HgN/A
12:00 PM73 °FSprinkles. Partly sunny.10 mph83%29.95 "HgN/A
11:30 AM72 °FBroken clouds.10 mph83%29.95 "HgN/A
11:00 AM72 °FSprinkles. Broken clouds.12 mph83%29.95 "HgN/A
10:30 AM72 °FScattered showers. Partly sunny.12 mph83%29.98 "HgN/A
10:00 AM72 °FSprinkles. Broken clouds.12 mph83%29.98 "HgN/A
9:50 AM72 °FSprinkles. Broken clouds.12 mph83%29.98 "Hg6 mi
9:30 AM72 °FRain showers. Fog.13 mph83%29.98 "HgN/A
9:00 AM72 °FSprinkles. Broken clouds.15 mph83%29.98 "HgN/A
8:30 AM72 °FRain showers. Fog.13 mph83%29.98 "HgN/A
8:00 AM72 °FSprinkles. Broken clouds.12 mph94%29.98 "HgN/A
7:30 AM72 °FSprinkles. Broken clouds.13 mph88%29.98 "HgN/A
7:00 AM72 °FSprinkles. Broken clouds.14 mph88%29.98 "HgN/A
6:30 AM72 °FSprinkles. Broken clouds.13 mph88%29.98 "HgN/A
6:00 AM72 °FSprinkles. Broken clouds.14 mph88%29.98 "HgN/A
5:30 AM72 °FScattered showers. Broken clouds.14 mph88%29.98 "HgN/A
5:00 AM72 °FScattered showers. Partly cloudy.13 mph88%29.95 "HgN/A
4:30 AM72 °FSprinkles. Partly cloudy.13 mph88%29.95 "HgN/A
4:00 AM72 °FPartly cloudy.13 mph88%29.95 "HgN/A
3:30 AM72 °FScattered showers. Partly cloudy.10 mph88%29.95 "HgN/A
3:00 AM72 °FLight rain. Partly cloudy.12 mph88%29.95 "HgN/A
2:30 AM72 °FLight rain. Partly cloudy.13 mph88%29.95 "HgN/A
2:00 AM72 °FPartly cloudy.13 mph88%29.95 "HgN/A
1:30 AM72 °FPartly cloudy.10 mph88%29.95 "HgN/A
1:00 AM72 °FPassing clouds.12 mph88%29.95 "HgN/A
12:30 AM72 °FPassing clouds.12 mph88%29.95 "HgN/A
12:00 AM72 °FPassing clouds.10 mph88%29.95 "HgN/A
11:30 PM
Aug 31
72 °FPartly cloudy.8 mph88%29.95 "HgN/A
11:00 PM72 °FPartly cloudy.10 mph88%29.98 "HgN/A
10:30 PM72 °FPartly cloudy.8 mph88%29.98 "HgN/A
10:00 PM73 °FPassing clouds.12 mph83%29.98 "HgN/A
9:30 PM73 °FPassing clouds.12 mph83%29.98 "HgN/A
9:00 PM73 °FPassing clouds.10 mph83%29.98 "HgN/A
8:30 PM73 °FPartly cloudy.12 mph89%29.98 "HgN/A
8:00 PM73 °FPartly cloudy.13 mph89%29.95 "HgN/A
7:30 PM75 °FPassing clouds.15 mph78%29.95 "HgN/A
7:00 PM75 °FPassing clouds.14 mph83%29.95 "HgN/A
6:30 PM75 °FPassing clouds.15 mph78%29.92 "HgN/A
6:00 PM75 °FScattered clouds.13 mph78%29.92 "HgN/A
Weather by CustomWeather, © 2014

See weather overviewHow to use our weather pages